009  
ASUS41 KALY 221210  
RWRALY  
 
NEW YORK STATE HOURLY WEATHER ROUNDUP  
NATIONAL WEATHER SERVICE ALBANY NY  
800 AM EDT THU JUN 22 2017  
 
NOTE: "FAIR" INDICATES FEW OR NO CLOUDS BELOW 12,000 FEET WITH NO  
SIGNIFICANT WEATHER AND/OR NO S TO VISIBILITY
.  
 
NYZ032-033-038>043-046>054-057>066-NYZ062>081-082-084-221300-  
EAST  
 
 
CITY SKY/WX TMP DP RH WIND PRES REMARKS
 
ALBANY MOSUNNY 65 53 65 SW5 30.03R  
GLENS FALLS SUNNY 61 54 77 S6 30.01  
POUGHKEEPSIE SUNNY 63 57 81 CALM 30.03R  
NEWBURGH SUNNY 64 59 82 W8 30.05R  
MONTGOMERY SUNNY 65 58 78 CALM 30.04R  
WHITE PLAINS SUNNY 70 55 60 NW5 30.03R  
ISLIP MOSUNNY 72 57 59 N9 30.02R  
NEW YORK CITY PTSUNNY 72 55 55 E6 30.02R  
CENTRAL PARK MOSUNNY 72 57 59 VRB3 30.06R  

 
 
NYZ005>009-017-018-044>046-055-056-221300-  
CENTRAL  
 
 
CITY SKY/WX TMP DP RH WIND PRES REMARKS
 
FULTON SUNNY 64 58 80 SW6 30.01S  
SYRACUSE PTSUNNY 63 57 81 E3 30.00F  
ROME SUNNY 59 54 83 SE5 30.02S  
ELMIRA FOG 54 54 100 SW5 30.04S VSB 3/4  
BINGHAMTON SUNNY 61 55 82 SW5 30.04S  
MONTICELLO SUNNY 61 57 88 CALM 30.08R  

 
 
NYZ026>034-041>043-087-221300-  
NORTH  
 
 
CITY SKY/WX TMP DP RH WIND PRES REMARKS
 
WATERTOWN SUNNY 64 60 87 SW8 29.98F  
FORT DRUM NOT AVBL  
OGDENSBURG FAIR 64 58 81 S5 29.97S  
MASSENA SUNNY 63 58 83 SW12 29.97R  
SARANAC LAKE SUNNY 58 55 90 SW9 29.99R  
PLATTSBURGH SUNNY 68 55 63 SW5 29.94R  

 
 
NYZ001>004-010>016-019>021-085-221300-  
WEST  
 
 
CITY SKY/WX TMP DP RH WIND PRES REMARKS
 
NIAGARA FALLS CLOUDY 64 58 80 S6 29.99S  
BUFFALO CLOUDY 59 54 83 S6 30.00S  
DUNKIRK SUNNY 60 55 83 CALM 30.02R  
JAMESTOWN FAIR 55 48 76 S5 30.03S  
WELLSVILLE FAIR 57 52 83 CALM 30.06S  
ROCHESTER CLOUDY 62 55 77 SW8 30.00S  
PENN YAN SUNNY 61 53 75 SW6 30.03R  

 
 
KEY  
WCI = WIND CHILL INDEX  
VSB = VISIBILITY  
HX = HEAT INDEX  

 
 
 
CLICK HERE TO GO TO PREVIOUS BULLETINS.

The Nexlab NY Page
The Nexlab VT Page
The Nexlab MA Page
The Nexlab CT Page Main Text Page